Regional Weather Roundup
Issued by NWS Wakefield, VA

Home | Current Version | Previous Version | Graphics & Text | Print | Product List | Glossary On
Versions: 1 2 3 4 5 6 7 8 9 10 11 12 13 14 15 16 17 18 19 20 21 22 23 24 25 26 27 28 29 30 31 32 33 34 35 36 37 38 39 40 41 42 43 44 45 46 47 48 49 50
000
ASUS41 KAKQ 161715
RWRAKQ

REGIONAL WEATHER ROUNDUP
NATIONAL WEATHER SERVICE WAKEFIELD VA
100 PM EDT WED AUG 16 2017

Note: "fair" indicates few or no clouds below 12,000 feet with no
significant weather and/or obstructions to visibility. * = Denotes
station may not report precipitation (e.g., rain,snow,etc.),
thunder or fog.

VAZ042-051-052>054-056-161800-
NORTHERN VIRGINIA

CITY           SKY/WX    TMP DP  RH WIND       PRES   REMARKS
WASH NATIONAL  PTSUNNY   88  71  57 NW9       30.00F
DULLES         PTSUNNY   85  72  65 MISG      30.02S
FORT BELVOIR   MOSUNNY   87  70  56 NW6       30.00S
QUANTICO       PTSUNNY   83  75  77 S6        30.01F
FREDERICKSBRG* SUNNY     86  73  65 S3        30.00S
STAFFORD*      MOSUNNY   86  70  58 W6        30.05S
WARRENTON      MOSUNNY   89  67  48 N3        30.02S
CULPEPER*      PTSUNNY   88  70  55 N7        30.03S
MANASSAS*      MOSUNNY   88  71  57 N8        30.02S
LEESBURG*      SUNNY     86  73  66 NE5       30.03F
WINCHESTER     SUNNY     82  66  57 NW5       30.04S
FRONT ROYAL*   SUNNY     84  70  61 CALM      30.04S
LURAY*         MOSUNNY   86  68  54 CALM      30.04F
$$

VAZ048-049-060>072-079>083-161800-
CENTRAL AND SOUTH CENTRAL VIRGINIA

CITY           SKY/WX    TMP DP  RH WIND       PRES   REMARKS
RICHMOND       MOSUNNY   86  72  62 VRB3      30.02S
CHESTERFIELD*  PTSUNNY   86  73  65 NW3       30.03S
PETERSBURG*    MOSUNNY   84  68  59 N3        30.03F
HANOVER        SUNNY     87  70  56 VRB3      30.03S
TAPPAHANNOCK*  SUNNY     87  70  57 CALM      30.02S
QUINTON*       FAIR      83  72  70 CALM      30.01S
CHARLOTTSVILLE SUNNY     88  65  46 SW5       30.03F
GORDONSVILLE*  SUNNY     86  70  58 NE5       30.02S
ORANGE*        SUNNY     86  68  54 W5        30.02F
LOUISA*        SUNNY     88  70  55 N5        30.02F
BUMPASS*       FAIR      85  71  63 NW6       30.02F
FARMVILLE*     MOSUNNY   88  61  40 CALM      30.02F
CREWE*         FAIR      84  68  58 CALM      30.03F
FORT PICKETT*  FAIR     N/A N/A N/A N5        30.04S
CHASE CITY*    PTSUNNY   85  71  62 CALM      30.04F
CLARKSVILLE*   FAIR      84  72  65 CALM      30.04S
SOUTH HILL*    MOSUNNY   83  73  72 N3        30.10S
LAWRENCEVILLE* PTSUNNY   84  72  67 NW5       30.04S
EMPORIA*       MOSUNNY   82  72  69 N3        30.04S
$$

VAZ088>098-161800-
SOUTHEAST VIRGINIA

CITY           SKY/WX    TMP DP  RH WIND       PRES   REMARKS
NORFOLK        MOSUNNY   83  75  77 N9        30.01R
VIRGINIA BEACH PTSUNNY   84  73  69 N5        30.00R
NORFOLK NAVAL  MOSUNNY   86  74  67 NE9       30.02S
WEST POINT*    SUNNY     87  70  57 NE5       30.02S
SALUDA*        FAIR      83  75  76 NW6       30.00S
NEWPORT NEWS   MOSUNNY   85  71  63 NE7       30.00F
LANGLEY AFB    MOSUNNY   84  72  67 NE7       30.01R
FORT EUSTIS    MOSUNNY   88  71  57 NW6       29.99S
WILLIAMSBURG*  SUNNY     90  73  58 CALM      30.02S HX  98
HR EXEC AP*    FAIR      84  72  65 CALM      29.98S
FRANKLIN*      MOSUNNY   85  70  61 N7        30.02S
US460-WAKEFLD  SUNNY     85  72  65 VRB5      30.02S
$$

VAZ020-022-025-037-045-161800-
WEST CENTRAL AND SOUTHWEST VIRGINIA

CITY           SKY/WX    TMP DP  RH WIND       PRES   REMARKS
STAUNTON*      MOSUNNY   82  67  59 SW5       30.09S
WAYNESBORO*    SUNNY     83  66  55 CALM      30.09S
HOT SPRINGS VA SUNNY     73  59  60 NE3       30.23S
LYNCHBURG      SUNNY     86  66  51 CALM      30.06F
DANVILLE       PTSUNNY   86  73  65 CALM      30.05S
SOUTH BOSTON*  FAIR      86  71  62 E3        30.04F
MARTINSVILLE   PTSUNNY   87  68  54 NE3       30.09S
ROANOKE        MOSUNNY   86  67  52 VRB5      30.09F
BLACKSBURG     SUNNY     81  67  62 CALM      30.16F
DUBLIN*        PTSUNNY   83  60  46 NW5       30.15S
MARION*        MOSUNNY   81  65  58 W5        30.19S
HILLSVILLE*    PTSUNNY   79  61  52 CALM      30.16S
RICHLANDS*     FAIR      79  65  62 CALM      30.17F
WISE*          LGT RAIN  72  72 100 NW3       30.20R
ABINGDON*      PTSUNNY   82  72  70 W7        30.15S
$$

MDZ021>025-VAZ099-100-161800-
SOUTHERN MARYLAND AND THE DELMARVA PENINSULA

CITY           SKY/WX    TMP DP  RH WIND       PRES   REMARKS
PATUXENT RIVER MOSUNNY   86  74  67 VRB3      30.00F
BAY BRIDGE APT MOSUNNY   81  73  78 W3        30.00S
LEONARDTOWN    SUNNY     84  72  65 CALM      30.01F
DOVER          MOSUNNY   84  73  70 CALM      29.96F
GEORGETOWN     SUNNY     86  69  56 MISG      29.99F
EASTON         MOSUNNY   84  73  70 W6        30.03
CAMBRIDGE      SUNNY     84  73  70 N6        29.99F
SALISBURY      MOSUNNY   84  71  65 CALM      29.99F
OCEAN CITY     MOSUNNY   81  73  76 SE7       30.00S
WALLOPS ISLAND PTSUNNY   83  73  72 NW7       30.01R
ACCOMACK*      SUNNY     83  71  67 N5        30.00S
$$

NCZ012>017-030>032-161800-
NORTH CENTRAL AND EASTERN NORTH CAROLINA

CITY           SKY/WX    TMP DP  RH WIND       PRES   REMARKS
ROANOKE RAPIDS FAIR      84  73  70 NE6       30.03S
RALEIGH        MOSUNNY   88  71  57 NE7       30.04F
ELIZABETH CITY MOSUNNY   86  77  74 NE7       30.00S HX  97
AHOSKIE*         N/A     83  74  72 NW3       30.02S
EDENTON*       CLOUDY    84  76  78 CALM      30.01S
CURRITUCK*     PTSUNNY   84  56  38 E7        30.01S
KILL DEVIL HLS MOSUNNY   81  75  80 CALM      30.00R
MANTEO         CLOUDY    81  74  77 NE8       30.01R
CAPE HATTERAS  MOSUNNY   86  77  74 NE8       29.99S HX  97
TARBORO*       NOT AVBL
GOLDSBORO      PTSUNNY   82  79  89 N6        30.02S
WASHINGTON     SUNNY     85  76  75 E5        30.01S
GREENVILLE     MOSUNNY   84  73  70 N5        30.03S
NEW BERN       CLOUDY    84  77  79 NW6       30.02S
WILMINGTON     MOSUNNY   91  76  61 N5        30.00F HX 103
$$

VAZ048-161800-
ELSEWHERE

CITY           SKY/WX    TMP DP  RH WIND       PRES   REMARKS
HARRISBURG PA  MOSUNNY   82  70  66 NW9       30.00S
BALTIMORE      PTSUNNY   83  72  69 NW5       29.99F
ANNAPOLIS      MOSUNNY   82  79  90 SE9       29.99F
ANDREWS AFB    MOSUNNY   85  71  63 NW7       30.00F
PHILADELPHIA   PTSUNNY   83  67  58 S5        29.98F
HENDERSON NC   MOSUNNY   82  69  65 NE5       30.05S
GREENSBORO     PTSUNNY   85  72  65 CALM      30.05F
ROCKY MOUNT    MOSUNNY   82  75  79 CALM      30.04S
$$

VAZ100-161800-
MARINE

STATION/POSITION TIME  TEMP    WIND        PRES    WAVE   SWELL
                       AIR SEA DIR/SP/G            HT/PER HT/PER
                 (UTC) (F)     (DEG/KT/KT) (MB)    (FT/S) (FT/S)
BRANDYWINE LGT   1648   77     310/  3/  5 1015.8F
CAPE MAY NJ      1648   78 78  310/  6/  7 1015.0F
LEWES DE         1642   77 76  360/  5/  6 1015.4F
15NM E FENWICK I 1650   75 77  300/  4/  6 1016.4R   4/11   3/11
OCEAN-CITY-INLET 1642   81 78   30/  4/  6 1016.2R
WACHAPREAGUE VA  1642   81 81   40/  5/  9 1015.9F
THOMAS POINT MD  1700   78 79  140/  4/  5   N/A
GOOSES REEF MD   1700   79 81  140/  2/  4 1016.7    0
COVE POINT MD    1642   78      70/  3/  5 1016.5F
SOLOMONS ISLAND  1642   84 81  260/  5/  6   N/A
BISHOPS HEAD MD  1642   79 81  270/  5/  7 1016.1F
PINEY POINT MD   1642          300/  3/  4   N/A
POTOMAC MD       1700   80 81  290/  2/  4 1015.3
CAMBRIDGE MD     1642   85 80              1016.6F
LEWISETTA VA     1642   81 81   30/  4/  7 1015.9F
RAPPAHANNOCK LGT 1642           10/  7/  8 1016.8S
STINGRAY PT      1700   79 81   80/  8/  8 1016.3    1/ 2
YORK RVR RNG VA  1642   81      80/  6/  7 1016.5S
YORKTOWN VA      1642   81 81  300/  3/  4 1015.8F
JAMESTOWN VA     1700      83  310/  4/  8   N/A     0
DOMINION TERM VA 1642   80     300/  7/  9 1016.2R
KIPTOPEKE VA     1642      80  330/ 12/ 13   N/A
CHES BAY BRIDGE  1642   78 80   30/ 11/ 14 1016.1R
CAPE HENRY VA    1642   78     340/ 11/ 12   N/A
WILLOUBY STN VA  1642   78      50/ 11/ 12 1016.3R
S CRANEY ISL VA  1642   81      10/  5/  7 1016.0R
CAPE HENRY BUOY  1600      78                N/A     3/10   2/11
1ST LANDING BUOY 1700   79 80              1016.0    2/ 3
64NM E OF VA BCH 1650   77 79   20/  8/  8 1016.3R   3/ 8   3/ 8
DUCK PIER NC     1642   78 78   30/  9/ 10 1015.7R
44100 DUCK FRF   1605      79                N/A     3/ 9   2/11
44056 DUCK FRF   1700      79                N/A     3/ 9   2/11
OREGON INLET NC  1642   80 83   30/  8/ 10 1015.9R
HATTERAS NC      1642   82 83   20/ 11/ 13 1015.5R
DIAMOND SHLS NC  1650   80 83   20/  8/ 10 1015.3R   2/ 8   2/ 8
CAPE LOOKOUT NC  1700   82      80/  6/  7 1015.2R
$$




USA.gov is the U.S. government's official web portal to all federal, state and local government web resources and services.